Regional Weather Roundup
Issued by NWS Albany, NY

Home | Current Version | Previous Version | Text Only | Print | Product List | Glossary On
Versions: 1 2 3 4 5 6 7 8 9 10 11 12 13 14 15 16 17 18 19 20 21 22 23 24 25 26 27 28 29 30 31 32 33 34 35 36 37 38 39 40 41 42 43 44 45 46 47 48 49 50
000
ASUS41 KALY 251410
RWRALY

NEW YORK STATE HOURLY WEATHER ROUNDUP
NATIONAL WEATHER SERVICE ALBANY NY
1000 AM EDT SAT APR 25 2015

NOTE: "FAIR" INDICATES FEW OR NO CLOUDS BELOW 12,000 FEET WITH NO
SIGNIFICANT WEATHER AND/OR NO OBSTRUCTIONS TO VISIBILITY.

NYZ032-033-038>043-046>054-057>066-NYZ062>081-251500-
EAST


CITY           SKY/WX    TMP DP  RH WIND       PRES   REMARKS
ALBANY         MOSUNNY   43  23  45 NW10      29.85F
GLENS FALLS    MOSUNNY   43  24  47 CALM      29.82F
POUGHKEEPSIE   SUNNY     44  24  45 W8        29.86F
NEWBURGH       SUNNY     41  27  56 W12       29.87F
MONTGOMERY     SUNNY     45  25  45 W8        29.86F
WHITE PLAINS   SUNNY     43  22  43 W10G20    29.85S
ISLIP          MOSUNNY   46  23  40 NW14      29.85S
NEW YORK CITY  PTSUNNY   46  24  42 NW15      29.87F
CENTRAL PARK   SUNNY     46  21  37 NW9G17    29.90F
$$

NYZ005>009-017-018-044>046-055-056-251500-
CENTRAL


CITY           SKY/WX    TMP DP  RH WIND       PRES   REMARKS
FULTON         SUNNY     41  25  53 W10       29.92F
SYRACUSE       MOSUNNY   40  26  57 NW6       29.92F
ROME           MOSUNNY   39  25  57 W12       29.91F WCI  32
ELMIRA         SUNNY     42  23  46 VRB7      29.92F
BINGHAMTON     SUNNY     35  22  58 NW9       29.87F WCI  28
MONTICELLO     SUNNY     37  23  56 NW13G18   29.86F WCI  29
$$

NYZ026>034-041>043-251500-
NORTH


CITY           SKY/WX    TMP DP  RH WIND       PRES   REMARKS
WATERTOWN      SUNNY     40  24  53 W7        29.91F
FORT DRUM      NOT AVBL
MASSENA        CLOUDY    36  24  62 W10       29.90S WCI  28
SARANAC LAKE   CLOUDY    31  22  69 SW9       29.79S WCI  23
PLATTSBURGH    CLOUDY    40  24  53 NW5       29.81F
$$

NYZ001>004-010>016-019>021-251500-
WEST


CITY           SKY/WX    TMP DP  RH WIND       PRES   REMARKS
NIAGARA FALLS  MOSUNNY   40  24  53 NE5       29.96F
BUFFALO        MOSUNNY   39  22  50 CALM      29.96F
DUNKIRK        SUNNY     40  23  50 NE6       29.97S
JAMESTOWN      MOSUNNY   36  19  51 NE5       29.92R WCI  32
WELLSVILLE     SUNNY     37  20  50 NE7       29.90F WCI  32
ROCHESTER      MOSUNNY   42  24  49 NW7       29.96S
PENN YAN       SUNNY     39  24  55 NW9       29.93F WCI  33
$$

             KEY
       WCI = WIND CHILL INDEX
       VSB = VISIBILITY
       HX  = HEAT INDEX
$$


USA.gov is the U.S. government's official web portal to all federal, state and local government web resources and services.